CARTOSAT-2F (43111 NORAD) Tracking and Keplerian Element Data

This shows tracking and keplerian element data for the satellite.

Feedback or suggestion? Click here.




ElementValue
Catalog43111
NameCARTOSAT-2F
Epoch Orbit20542
Epoch Day269.17946248
Epoch Year2021
RAAN327.5939
Inclination97.4885
Eccentricity0.0003342
Argument of Perigee219.208
Mean Anonmoly225.8248
Mean Motion15.19228489
Decay Rate8.84E-06
L11 43111U 18004A 21269.17946248 .00000884 00000-0 45244-4 0 9997
L22 43111 97.4885 327.5939 0003342 219.2080 225.8248 15.19228489205428

Live tracking and technical data element details for CARTOSAT-2F (NORAD 43111). CARTOSAT-2F can be tracked NOW for your location showing map with azimuth and elevation plus other details from your city location.

Track the satellite on the map from your city or location and see movement details for azimuth, elevation, latitude, longitude, range, height, and movement on the map or in text.







IsCatalogInMostPopularTable: catalog: 43111, numindb: 576
Update: records affected: 1



GetName: 43111 CARTOSAT-2F

Hit Count: updated at: Mon, 27 Sep 2021 01:37:09 GMT